Location: Wildlife_Club
(35.6000°N, 81.4330°W)
Time: 15:49:44
(UTC-04:00)

Iridium 56 - Visible Passes

Search period start: 28 April 2016 00:00
Search period end: 08 May 2016 00:00
Orbit: 776 x 779 km, 86.4° (Epoch: 28 April)

Date Brightness Start Highest point End Pass type
(mag) Time Alt. Az. Time Alt. Az. Time Alt. Az.
28 Apr 6.1 21:18:04 17° SE 21:21:32 36° E 21:26:16 10° NNE visible
28 Apr 7.7 22:58:28 10° SW 23:02:18 22° W 23:06:17 10° NNW visible
29 Apr 6.9 20:44:42 10° SE 20:48:16 19° E 20:51:51 10° NE visible
29 Apr 6.7 22:24:14 13° SSW 22:28:36 41° W 22:33:31 10° NNW visible
30 Apr 5.6 21:49:55 11° S 21:55:01 79° W 22:00:15 10° N visible
01 May 5.7 21:16:30 10° SSE 21:21:33 53° E 21:26:37 10° NNE visible
01 May 8.2 22:59:44 10° WSW 23:02:35 15° WNW 23:05:25 10° NW visible
02 May 6.5 20:43:51 10° SE 20:48:11 28° E 20:52:34 10° NNE visible
02 May 7.4 22:24:22 10° SW 22:28:47 28° W 22:33:13 10° NNW visible
03 May 6.3 21:50:04 10° SSW 21:55:07 53° W 22:00:14 10° N visible
04 May 5.5 21:16:23 10° S 21:21:35 80° E 21:26:49 10° N visible
05 May 6.0 20:43:19 10° SSE 20:48:10 41° E 20:53:02 10° NNE visible
05 May 8.0 22:25:23 10° WSW 22:29:01 19° WNW 22:32:40 10° NW visible
06 May 7.1 21:50:32 10° SSW 21:55:17 35° W 22:00:04 10° NNW visible
07 May 5.9 21:16:29 10° S 21:21:40 69° W 21:26:52 10° N visible
